Αρχική σελίδα
METAR-TAF:

METAR-TAF

Αεροδρόμια :

York Municipal Airport

York, Νεμπράσκα, Ηνωμένες Πολιτείες Αμερικής

γεωγραφικό πλάτος: 40-53-48N, γεωγραφικό μήκος: 097-37-22W, υψόμετρο: 509 μ

Παρών καιρός

Η αναφορά έγινε 10 λεπτά πριν, στις 10:35 UTC
Ήπιος άνεμος
Θερμοκρασία 4°C
Υγρασία 93%
Πίεση 1026 hPa
Ορατότητα: 11.3 χλμ
Λίγα νέφη σε ύψος 4200 πόδια
Διάσπαρτα νέφη σε ύψος 4900 πόδια
Αρκετά νέφη σε ύψος 7500 πόδια

METAR: KJYR 261035Z AUTO 00000KT 7SM FEW042 SCT049 BKN075 04/03 A3031 RMK AO2

Χρόνος: 05:45 (10:45 UTC)


TAF: λείπει

Μετεωρολογικές αναφορές και προγνώσεις για περισσότερα από 4000 αεροδρόμια (δελτία METAR και TAF).

Οι διαθέσιμοι σταθμοί απεικονίζονται στο χάρτη με κίτρινες και κόκκινες κουκκίδες.

Μετακινήστε το ποντίκι πάνω από τις κουκκίδες για να δείτε το όνομα του σταθμού.

Στη συνέχεια, κάντε κλικ για να δείτε τις μετεωρολογικές αναφορές και τις προγνώσεις καιρού.

Για να αλλάξετε το χάρτη: κάντε κλικ στα πράσινα κουμπιά με τον μαύρο σταυρό για να ζουμάρετε, στο πράσινο κουμπί με την παύλα για να αφαιρέσετε το ζουμ ή στα πράσινα βέλη για να αντιπαραβάλλετε χάρτες.


METAR-TAF: